Location: Anumalkud?ru
(16.4847°N, 80.6636°E)
Time: 00:05:09
(UTC+00:00)

Cosmos 1633 Rocket - Pass Details

Date: 11 April 2026
Orbit: 599 x 617 km, 82.5° (Epoch: 9 May)

Event Time Altitude Azimuth Distance (km) Brightness Sun altitude
Rises 13:49:25 0° 187° (S) 2,873 6.4 -14.3°
Reaches altitude 10° 13:51:38 10° 188° (S) 1,970 5.6 -14.8°
Maximum altitude 13:56:00 77° 275° (W) 633 3.2 -15.9°
Drops below altitude 10° 14:00:22 10° 1° (N) 1,972 5.8 -16.9°
Sets 14:02:35 0° 3° (N) 2,877 6.6 -17.4°
